This demonstration page uses our WeatherBlox Daily Observations layout. Learn more.

Left ArrowRight Arrow

41.86663, -103.66717

Hourly Observations for June 14, 2022

Temp ( °F °C ) Dew Point ( °F °C ) Humidity (%) Winds ( mph kmh ) Pressure ( in mb ) Visibility ( mi km ) Precip ( " mm )
12:53 am 00:53 Clear 65 18.3 35 1.7 33 33 NNW 21 33 29.53 1000 10 16 0.00 0.00
1:53 am 01:53 Mostly Cloudy 64 17.8 37 2.8 37 37 NNW 12 19 29.53 1000 10 16 0.00 0.00
2:53 am 02:53 Mostly Cloudy 63 17.2 38 3.3 40 40 WNW 5 7 29.55 1001 10 16 0.00 0.00
3:53 am 03:53 Clear 59 15 40 4.4 49 49 WNW 5 7 29.57 1001 10 16 0.00 0.00
4:53 am 04:53 Clear 55 12.8 40 4.4 57 57 NNE 6 9 29.60 1002 10 16 0.00 0.00
5:53 am 05:53 Sunny 58 14.4 42 5.6 56 56 Calm 29.63 1003 10 16 0.00 0.00
6:53 am 06:53 Sunny 61 16.1 39 3.9 44 44 WNW 9 15 29.66 1004 10 16 0.00 0.00
7:53 am 07:53 Mostly Sunny 63 17.2 38 3.3 40 40 WNW 21 33 29.68 1005 10 16 0.00 0.00
8:53 am 08:53 Mostly Cloudy 62 16.7 36 2.2 38 38 W 21 33 29.73 1007 10 16 0.00 0.00
9:53 am 09:53 Mostly Cloudy 62 16.7 34 1.1 35 35 W 21 33 29.73 1007 10 16 0.00 0.00
10:53 am 10:53 Sunny 68 20 30 -1.1 24 24 W 21 33 29.73 1007 10 16 0.00 0.00
11:53 am 11:53 Sunny 73 22.8 30 -1.1 20 20 WNW 30 48 29.71 1006 10 16 0.00 0.00
12:53 pm 12:53 Sunny 75 23.9 30 -1.1 19 19 WNW 29 46 29.70 1006 10 16 0.00 0.00
1:53 pm 13:53 Sunny 76 24.4 27 -2.8 16 16 WNW 30 48 29.68 1005 10 16 0.00 0.00
2:53 pm 14:53 Mostly Sunny 74 23.3 24 -4.4 15 15 WNW 26 43 29.70 1006 10 16 0.00 0.00
3:53 pm 15:53 Partly Cloudy 75 23.9 24 -4.4 15 15 WNW 16 26 29.70 1006 10 16 0.00 0.00
4:53 pm 16:53 Partly Cloudy 77 25 22 -5.6 13 13 WNW 29 46 29.70 1006 10 16 0.00 0.00
5:53 pm 17:53 Sunny 75 23.9 23 -5 14 14 W 23 37 29.71 1006 10 16 0.00 0.00
6:53 pm 18:53 Sunny 73 22.8 21 -6.1 14 14 W 10 17 29.72 1007 10 16 0.00 0.00
7:53 pm 19:53 Sunny 67 19.4 20 -6.7 17 17 N 6 9 29.74 1007 10 16 0.00 0.00
8:53 pm 20:53 Clear 60 15.6 22 -5.6 23 23 N 7 11 29.76 1008 10 16 0.00 0.00
9:53 pm 21:53 Mostly Cloudy 61 16.1 25 -3.9 25 25 NNE 8 13 29.79 1009 10 16 0.00 0.00
10:36 pm 22:36 Mostly Cloudy with Nearby Thunderstorms 61 16.1 29 -1.7 30 30 Calm 29.75 1007 10 16 0.00 0.00
10:51 pm 22:51 Cloudy 61 16 28 -2 29 29 Calm 29.76 1008 10 16 0.00 0.00
10:53 pm 22:53 Cloudy 62 16.7 27 -2.8 26 26 SSW 3 6 29.79 1009 10 16 0.00 0.00
11:53 pm 23:53 Cloudy with Light Rain 65 18.3 26 -3.3 23 23 VRB 3 6 29.77 1008 10 16 0.00 0.00

Powered by AerisWeather